Del Rio, TX

9:02 PM CDT on March 22, 2017 (GMT -0500)
Del Rio International

Weather History for KDRT - October, 2013

Change the Weather History Date:

Saturday, October 19, 2013

  Actual Average Record
Temperature  
Mean Temperature 63 °F 71 °F  
Max Temperature 71 °F 82 °F 93 °F (1938)
Min Temperature 54 °F 60 °F 38 °F (1989)
Degree Days  
Heating Degree Days 2 1  
Month to date heating degree days 7 5  
Since 1 July heating degree days 7 6  
Cooling Degree Days 0 7  
Month to date cooling degree days 173 169  
Year to date cooling degree days 3633 3264  
Growing Degree Days 12 (Base 50)    
Moisture  
Dew Point 46 °F    
Average Humidity 60    
Maximum Humidity 87    
Minimum Humidity 33    
Precipitation  
Precipitation 0.00 in 0.08 in 2.16 in (1983)
Month to date precipitation 1.40 1.60  
Year to date precipitation 14.33 17.31  
Sea Level Pressure  
Sea Level Pressure 30.11 in    
Wind  
Wind Speed 8 mph (NNW)    
Max Wind Speed 22 mph    
Max Gust Speed 32 mph    
Visibility 10 miles    
Events      
T = Trace of Precipitation, MM = Missing Value Source: NWS Daily Summary

Daily Weather History Graph

Daily Weather History Graph

Search for Another Location

Airport or City:

Trip Planner

Search our weather history database for the weather conditions in past years. The results will help you decide how hot, cold, wet, or windy it might be!

Date:

Astronomy

Oct. 19, 2013 Rise Set
Actual Time 7:47 AM CDT 7:08 PM CDT
Civil Twilight 7:23 AM CDT 7:32 PM CDT
Nautical Twilight 6:56 AM CDT 8:00 PM CDT
Astronomical Twilight 6:28 AM CDT 8:28 PM CDT
Moon 7:43 PM CDT (10/19) 8:22 AM CDT (10/19)
Length of Visible Light 12h 09m
Length of Day
11h 21m
Waxing Gibbous, 99% of the Moon is Illuminated
Oct 19
Waxing Gibbous
Oct 26
Last Quarter
Nov 3
New
Nov 9
First Quarter
Nov 17
Full

Hourly Weather History & Observations

Time (CDT) Temp. Dew Point Humidity Pressure Visibility Wind Dir Wind Speed Gust Speed Precip Events Conditions
12:53 AM 68.0 °F 64.0 °F 87% 29.99 in 10.0 mi NNW 5.8 mph - N/A   Overcast
1:14 AM 64.4 °F 55.4 °F 73% 30.04 in 10.0 mi North 19.6 mph 28.8 mph N/A   Overcast
1:53 AM 60.1 °F 51.1 °F 72% 30.03 in 10.0 mi North 13.8 mph 28.8 mph N/A   Overcast
2:53 AM 59.0 °F 50.0 °F 72% 30.08 in 10.0 mi NW 9.2 mph - N/A   Overcast
3:01 AM 59.0 °F 50.0 °F 72% 30.11 in 10.0 mi NNW 11.5 mph - N/A   Overcast
3:53 AM 59.0 °F 46.9 °F 64% 30.10 in 10.0 mi NNW 11.5 mph - N/A   Overcast
4:53 AM 57.9 °F 46.9 °F 67% 30.12 in 10.0 mi WNW 12.7 mph - N/A   Overcast
5:53 AM 55.9 °F 44.1 °F 64% 30.14 in 10.0 mi NW 15.0 mph 23.0 mph N/A   Overcast
6:53 AM 55.0 °F 44.1 °F 67% 30.16 in 10.0 mi NW 9.2 mph - N/A   Mostly Cloudy
7:53 AM 54.0 °F 45.0 °F 72% 30.18 in 10.0 mi NW 10.4 mph - N/A   Overcast
8:53 AM 54.0 °F 41.0 °F 62% 30.20 in 10.0 mi NNW 12.7 mph 21.9 mph N/A   Overcast
9:53 AM 55.9 °F 42.1 °F 60% 30.22 in 10.0 mi NW 12.7 mph 19.6 mph N/A   Overcast
10:53 AM 57.0 °F 42.1 °F 57% 30.21 in 10.0 mi NW 13.8 mph 19.6 mph N/A   Mostly Cloudy
11:53 AM 60.1 °F 42.1 °F 51% 30.21 in 10.0 mi NW 10.4 mph - N/A   Clear
12:53 PM 63.0 °F 42.1 °F 46% 30.17 in 10.0 mi NW 11.5 mph - N/A   Clear
1:53 PM 64.9 °F 41.0 °F 42% 30.15 in 10.0 mi NW 5.8 mph - N/A   Clear
2:53 PM 66.9 °F 39.9 °F 37% 30.11 in 10.0 mi Calm Calm - N/A   Clear
3:53 PM 70.0 °F 41.0 °F 35% 30.09 in 10.0 mi North 3.5 mph - N/A   Clear
4:53 PM 70.0 °F 39.9 °F 33% 30.06 in 10.0 mi Calm Calm - N/A   Clear
5:53 PM 69.1 °F 42.1 °F 38% 30.06 in 10.0 mi SSW 4.6 mph - N/A   Clear
6:53 PM 66.9 °F 45.0 °F 45% 30.05 in 10.0 mi Calm Calm - N/A   Clear
7:53 PM 63.0 °F 48.0 °F 58% 30.05 in 10.0 mi SSE 4.6 mph - N/A   Clear
8:53 PM 61.0 °F 48.9 °F 64% 30.06 in 10.0 mi SSE 5.8 mph - N/A   Clear
9:53 PM 60.1 °F 48.0 °F 64% 30.07 in 10.0 mi SE 5.8 mph - N/A   Clear
10:53 PM 59.0 °F 48.0 °F 67% 30.07 in 10.0 mi ESE 3.5 mph - N/A   Clear
11:53 PM 57.9 °F 48.9 °F 72% 30.06 in 10.0 mi ESE 4.6 mph - N/A   Clear